TimePST,TemperatureF,Dew PointF,Humidity,Sea Level PressureIn,VisibilityMPH,Wind Direction,Wind SpeedMPH,Gust SpeedMPH,PrecipitationIn,Events,Conditions,WindDirDegrees,DateUTC
12:56 AM,-17.0,-22.0,78,30.42,10.0,SSE,3.5,-,N/A,,Clear,150,2013-01-13 08:56:00
1:56 AM,-18.9,-23.1,81,30.43,10.0,SE,3.5,-,N/A,,Clear,140,2013-01-13 09:56:00
2:56 AM,-17.0,-23.1,74,30.39,10.0,SE,4.6,-,N/A,,Clear,130,2013-01-13 10:56:00
3:56 AM,-16.1,-20.9,79,30.38,10.0,Calm,Calm,-,N/A,,Clear,0,2013-01-13 11:56:00
4:39 AM,-16.6,-23.8,70,30.15,10.0,Calm,Calm,-,N/A,,Scattered Clouds,0,2013-01-13 12:39:00
4:47 AM,-20.2,-23.8,83,30.15,10.0,Calm,Calm,-,N/A,,Mostly Cloudy,0,2013-01-13 12:47:00
4:52 AM,-18.4,-23.8,76,30.15,1.0,Calm,Calm,-,N/A,,Haze,0,2013-01-13 12:52:00
4:56 AM,-18.0,-22.0,82,30.43,0.5,Calm,Calm,-,N/A,Fog,Light Freezing Fog,0,2013-01-13 12:56:00
5:39 AM,-18.4,-20.2,91,30.16,0.2,Calm,Calm,-,N/A,Fog,Light Freezing Fog,0,2013-01-13 13:39:00
5:51 AM,-18.4,-20.2,91,30.16,0.5,Calm,Calm,-,N/A,Fog,Light Freezing Fog,0,2013-01-13 13:51:00
5:56 AM,-18.9,-22.0,86,30.50,0.2,Calm,Calm,-,N/A,Fog,Light Freezing Fog,0,2013-01-13 13:56:00
6:28 AM,-14.8,-22.0,70,30.19,1.0,Calm,Calm,-,N/A,,Haze,0,2013-01-13 14:28:00
6:38 AM,-16.6,-20.2,84,30.19,1.8,ESE,3.5,-,N/A,,Haze,120,2013-01-13 14:38:00
6:45 AM,-14.8,-20.2,77,30.19,2.5,East,3.5,-,N/A,,Haze,100,2013-01-13 14:45:00
6:56 AM,-15.0,-23.1,67,30.53,6.0,Calm,Calm,-,N/A,,Haze,0,2013-01-13 14:56:00
7:38 AM,-14.8,-20.2,77,30.19,5.0,SSE,3.5,-,N/A,,Haze,160,2013-01-13 15:38:00
7:56 AM,-11.0,-17.0,75,30.52,4.0,Calm,Calm,-,N/A,,Haze,0,2013-01-13 15:56:00
8:56 AM,-2.0,-9.0,72,30.50,9.0,Calm,Calm,-,N/A,,Overcast,0,2013-01-13 16:56:00
9:56 AM,6.1,-2.0,69,30.48,10.0,Calm,Calm,-,N/A,,Mostly Cloudy,0,2013-01-13 17:56:00
10:23 AM,6.8,-2.2,67,30.21,1.8,Calm,Calm,-,N/A,,Haze,0,2013-01-13 18:23:00
10:30 AM,8.6,-0.4,67,30.21,1.0,Calm,Calm,-,N/A,,Haze,0,2013-01-13 18:30:00
10:34 AM,8.6,-2.2,62,30.21,2.0,Calm,Calm,-,N/A,,Haze,0,2013-01-13 18:34:00
10:41 AM,6.8,-0.4,72,30.21,9.0,Calm,Calm,-,N/A,,Overcast,0,2013-01-13 18:41:00
10:56 AM,6.1,-0.9,73,30.48,10.0,North,3.5,-,N/A,,Overcast,350,2013-01-13 18:56:00
11:56 AM,9.0,1.9,73,30.47,10.0,North,3.5,-,N/A,,Overcast,350,2013-01-13 19:56:00
12:56 PM,10.9,3.9,73,30.47,10.0,North,5.8,-,N/A,,Overcast,10,2013-01-13 20:56:00
1:56 PM,12.9,5.0,71,30.47,10.0,NW,3.5,-,N/A,,Overcast,310,2013-01-13 21:56:00
2:56 PM,12.9,5.0,71,30.47,10.0,Calm,Calm,-,N/A,,Clear,0,2013-01-13 22:56:00
3:56 PM,10.9,3.9,73,30.50,10.0,WNW,3.5,-,N/A,,Clear,290,2013-01-13 23:56:00
4:56 PM,6.1,1.0,80,30.52,10.0,NNE,3.5,-,N/A,,Clear,20,2013-01-14 00:56:00
5:56 PM,-2.9,-8.0,79,30.57,10.0,Calm,Calm,-,N/A,,Clear,0,2013-01-14 01:56:00
6:56 PM,-7.1,-11.0,83,30.59,10.0,SSE,5.8,-,N/A,,Clear,150,2013-01-14 02:56:00
7:56 PM,-11.0,-15.0,83,30.61,10.0,SSE,5.8,-,N/A,,Clear,160,2013-01-14 03:56:00
8:56 PM,-14.1,-18.9,79,30.59,10.0,SE,5.8,-,N/A,,Scattered Clouds,140,2013-01-14 04:56:00
9:56 PM,-13.0,-18.9,75,30.57,10.0,SE,4.6,-,N/A,,Clear,130,2013-01-14 05:56:00
10:56 PM,-14.1,-18.0,82,30.58,10.0,South,6.9,-,N/A,,Clear,170,2013-01-14 06:56:00
11:56 PM,-18.0,-23.1,78,30.59,10.0,Calm,Calm,-,N/A,,Clear,0,2013-01-14 07:56:00